Location: Rothenburg ob der Tauber
(49.3772°N, 10.1789°E)
Time: 07:09:01
(UTC+02:00)

ISS - Visible Passes

Search period start: 19 September 2020 00:00
Search period end: 29 September 2020 00:00
Orbit: 419 x 420 km, 51.6° (Epoch: 19 September)

Date Brightness Start Highest point End Pass type
(mag) Time Alt. Az. Time Alt. Az. Time Alt. Az.
19 Sep -3.4 20:52:13 10° SW 20:55:26 44° SSE 20:56:09 38° ESE visible
19 Sep -0.6 22:28:52 10° W 22:29:08 12° W 22:29:08 12° W visible
20 Sep -2.8 20:05:08 10° SSW 20:08:09 31° SE 20:10:54 12° E visible
20 Sep -2.7 21:41:24 10° WSW 21:43:53 45° W 21:43:53 45° W visible
21 Sep -3.9 20:54:00 10° WSW 20:57:22 85° SSE 20:58:29 40° ENE visible
21 Sep -0.6 22:31:01 10° W 22:31:27 13° WNW 22:31:27 13° WNW visible
22 Sep -3.7 20:06:38 10° WSW 20:09:59 64° SSE 20:13:00 12° ENE visible
22 Sep -2.4 21:43:32 10° W 21:45:58 40° WNW 21:45:58 40° WNW visible
23 Sep -3.5 20:56:01 10° W 20:59:23 64° N 21:00:24 40° NE visible
23 Sep -0.4 22:33:04 10° WNW 22:33:21 12° WNW 22:33:21 12° WNW visible
24 Sep -3.6 20:08:32 10° WSW 20:11:55 76° NNW 20:14:46 14° ENE visible
24 Sep -2.1 21:45:36 10° WNW 21:47:44 34° WNW 21:47:44 34° WNW visible
25 Sep -3.3 20:58:05 10° W 21:01:26 56° N 21:02:04 46° NE visible
25 Sep -0.2 22:35:01 10° WNW 22:35:01 10° WNW 22:35:01 10° WNW visible
26 Sep -3.3 20:10:34 10° W 20:13:55 58° N 20:16:22 17° ENE visible
26 Sep -1.7 21:47:33 10° WNW 21:49:19 28° WNW 21:49:19 28° WNW visible
27 Sep -3.7 21:00:04 10° WNW 21:03:26 64° N 21:03:37 62° NNE visible
28 Sep -3.4 20:12:33 10° WNW 20:15:53 58° N 20:17:54 21° E visible
28 Sep -1.4 21:49:26 10° WNW 21:50:51 23° W 21:50:51 23° W visible
